Current weather by "City, St" or "zip code"  
 
Advertise Here

Current Conditions: Tuscaloosa Regional Airport, AL

Fair


91.0 F

Last Updated on Aug 4 2020, 4:53 pm CDT
Humidity: 49%
Wind Speed: NW 6.9 mph
Barometer 29.92 in
Dewpoint: 69.1 F
Visibility: 10.00 mi
Precip: --
Heat Index: 96 F
Wind Chill: NA
Current conditions at:

Tuscaloosa Regional Airport, AL (KTCL)

Lat: 33.21215 Lon: 87.61554

Local Radar Image active severe weather and emergency alerts image image weather storm and storm spotter reports image weather observation monitoring service image
Local
Radar
Active
Alerts
Storm Reports Obs
Monitoring

Sign-up For Email & Text Message Weather Alert Notification Services


Advertise Here

Observation History for Tuscaloosa Regional Airport, AL


Time Wind
(mph)
Vis
(mi)
Weather Precip (in) Temperature (F) Relative
Humidity
Wind
Chill
(F)
Heat
Index
(F)
Pressure
Air Dwpt altimeter
(in)
sea level
(mb)
Rmks
4:53 pm CDT NW 6.9 10.00 Fair -- 91.0 69.1 49% NA 96 29.92 1012.8
3:53 pm CDT 3.5 10.00 Fair -- 91.0 69.1 49% NA 96 29.93 1013.2
2:53 pm CDT NW 4.6 10.00 Fair -- 90.0 70.0 52% NA 95 29.95 1013.8
1:53 pm CDT NW 4.6 10.00 A Few Clouds -- 90.0 70.0 52% NA 95 29.95 1014.0
12:53 pm CDT N 0.0 10.00 Fair -- 88.0 71.1 57% NA 94 29.97 1014.6
11:53 am CDT N 0.0 10.00 Mostly Cloudy -- 87.0 70.0 57% NA 92 29.98 1014.9
10:53 am CDT W 3.5 10.00 Fair -- 87.0 68.0 53% NA 90 29.99 1015.2
9:53 am CDT N 0.0 10.00 Fair -- 85.0 72.0 65% NA 91 29.99 1015.1
8:53 am CDT N 0.0 9.00 Fair -- 79.0 72.0 79% NA NA 29.98 1014.9
7:53 am CDT N 0.0 8.00 Fair -- 75.0 73.0 94% NA NA 29.97 1014.6
6:53 am CDT N 0.0 8.00 Fair -- 72.0 70.0 94% NA NA 29.95 1014.1
5:53 am CDT N 0.0 7.00 Fair -- 70.0 69.1 97% NA NA 29.94 1013.7
4:53 am CDT N 0.0 8.00 Fair -- 71.0 70.0 96% NA NA 29.94 1013.5
3:53 am CDT N 0.0 6.00 Fog/Mist -- 71.0 70.0 96% NA NA 29.93 1013.2
1:53 am CDT N 0.0 8.00 Fair -- 73.0 72.0 96% NA NA 29.92 1012.9
12:53 am CDT N 0.0 9.00 Fair -- 73.0 72.0 96% NA NA 29.93 M
11:53 pm CDT N 0.0 10.00 Fair -- 73.0 72.0 96% NA NA 29.94 M
10:53 pm CDT N 0.0 10.00 Fair -- 76.0 72.0 88% NA NA 29.94 M
9:53 pm CDT N 0.0 10.00 Fair -- 76.0 73.0 91% NA NA 29.94 M
8:53 pm CDT N 0.0 10.00 Fair -- 78.0 73.9 87% NA NA 29.93 M
7:53 pm CDT N 0.0 10.00 Fair -- 84.0 69.1 61% NA 88 29.91 1012.5
6:53 pm CDT W 4.6 10.00 Fair -- 88.0 66.9 50% NA 91 29.90 M
5:53 pm CDT 5.8 10.00 A Few Clouds -- 90.0 64.9 44% NA 92 29.90 M

Regional Weather Observation


Jasper Walker County Airport amp; Bevill Field, AL (KJFX)

Partly Cloudy
86.0 F

Columbus Air Force Base, MS (KCBM)

Fair
86.0 F

Columbus/West Point/Starkville, Golden Triangle Regional Airport, MS (KGTR)

Light Rain
79.0 F

Monroe County Airport, MS (KM40)

Fair
84.0 F

George M Bryan Airport, Starkville, MS (KSTF)

Mostly Cloudy
82.0 F

Alabaster, Shelby County Airport, AL (KEET)

Mostly Cloudy
87.0 F